Location: Newark
(42.8481°N, 0.4872°E)
Time: 08:52:09
(UTC+00:00)

Transit 2A Rocket - Pass Details

Date: 31 October 2020
Orbit: 588 x 914 km, 66.7° (Epoch: 29 November)

Event Time Altitude Azimuth Distance (km) Brightness Sun altitude
Rises 15:38:13 0° 338° (NNW) 3,337 8.2 11.3°
Reaches altitude 10° 15:42:04 10° 3° (N) 2,324 7.2 10.7°
Maximum altitude 15:44:43 14° 34° (NNE) 2,017 6.7 10.2°
Drops below altitude 10° 15:47:15 10° 64° (ENE) 2,207 6.8 9.8°
Sets 15:50:43 0° 91° (E) 3,046 7.6 9.3°
